User: anonymous   Login
Location: Kikino
(54.4440°N, 112.0940°W)
Time: 12:17:34
(UTC+00:00)
Language:

Altair - Orbit

View from above orbital plane
View from above orbital plane
View from above satellite
View from above satellite

Ground track
Ground track

The orbit data is extracted from the following two-line orbital elements,

1    50U 60009B   24139.89594305 -.00000041  00000-0  41031-3 0  9990
2    50  47.2348 358.4872 0113237 272.0076  86.7748 12.20140175845441
Epoch (UTC): 18 May 2024 21:30:09
Eccentricity: 0.0113237
inclination: 47.2348°
perigee height: 1501 km
apogee height: 1682 km
right ascension of ascending node: 358.4872°
argument of perigee: 272.0076°
revolutions per day: 12.20140175
mean anomaly at epoch: 86.7748°
orbit number at epoch: 84544

The dashed part of the orbit path shows where the satellite is in the earth's shadow,  

DLR